Location: Key Biscayne
(25.6930°N, 80.1630°W)
Time: 07:32:18
(UTC-05:00)

Vanguard 1 - Pass Details

Date: 24 November 2017
Orbit: 650 x 3833 km, 34.2° (Epoch: 10 December)

Event Time Altitude Azimuth Distance (km) Brightness Sun altitude
Rises 20:23:21 0° 294° (WNW) 2,954 13.2 -38.6°
Reaches altitude 10° 20:25:26 10° 293° (WNW) 2,078 12.3 -39.1°
Enters shadow 20:25:44 12° 293° (WNW) 1,960 12.1 -39.2°
